Location: Grange Rosano
(44.4500°N, 6.9667°E)
Time: 08:19:38
(UTC+00:00)

Cosmos 2074 Rocket - Pass Details

Date: 26 May 2022
Orbit: 968 x 985 km, 82.9° (Epoch: 01 July)

Event Time Altitude Azimuth Distance (km) Brightness Sun altitude
Rises 01:20:42 0° 352° (N) 3,700 7.9 -19.7°
Reaches altitude 10° 01:23:14 10° 353° (N) 2,749 7.1 -19.5°
Maximum altitude 01:29:34 86° 83° (E) 994 4.0 -18.9°
Enters shadow 01:34:00 21° 171° (S) 2,053 5.3 -18.5°
